Погода в Водяной Балке

Украина / Полтавская область     49°54′08″N   34°28′54″E
темп.,
°C
ветер,
м/с
пор.,
м/с
влажн.,
%
обл.,
%
осадки,
мм/ч
давл.,
гПа
погр.,
м
21 января, пт
пт2123:00−4ю61391100 0.0 1008327
02:00−3ю51096100 0.4 1006342
05:00−3юз51197100 1.3 1004405
08:00−3зюз51190100 1.6 1005384
11:00−3зюз7118769 0.2 1006864
14:00−3юз81288100 0.3 1006982
17:00−4юз7148595 0.0 1006692
20:00−5юз7159098 0.1 1006570
22 января, сб
сб2223:00−5юз7149395 0.1 1007528
02:00−5юз6129499 0.3 1007502
05:00−6юз6129499 0.1 1007402
08:00−5юз5119493 0.3 1008376
11:00−3юз589392 0.2 1009439
14:00−2зюз579399 0.6 1010689
17:00−6юз369598 0.1 101285
20:00−9ююз349616 0.1 101455
23 января, вс
вс2323:00−11ююз239757 0.0 101539
02:00−12ю229874 0.0 101616
05:00−12ююв229990 0.0 101817
08:00−13в2210094 0.1 102020
11:00−7всв239358 0.0 1021145
14:00−5св369289 0.0 1023288
17:00−9ссв499652 0.0 1025142
20:00−11ссв41096100 0.0 1027158
24 января, пн
пн2423:00−9ссв51293100 0.0 1027276
02:00−8с61589100 0.0 1025398
05:00−7ссв71495100 0.8 1024533
08:00−6ссв61395100 1.6 1026518
11:00−4св7129399 0.3 1026516
14:00−3св699499 0.4 1026645
17:00−6св499499 0.1 1027295
20:00−8ссв489697 0.1 1028197
25 января, вт
вт2523:00−10св4896100 0.0 1028178
02:00−9ссв3696100 0.1 1027168
05:00−8ссв3696100 0.4 1026191
08:00−7ссв3596100 1.1 1026203
11:00−6ссв2393100 0.4 1025286
14:00−5ссз2293100 0.8 1024291
17:00−8ссз229776 0.1 102422
20:00−8сз1296100 0.3 102370